Voltar ao catálogo

SJ-21

AtivoCiênciaGEO
NORAD 49330·PAYLOAD·🇨🇳 China

Lançado Oct 24, 2021 de Xichang Satellite Launch Center

Loading…

TLE

AtualizadoSource: Space-Track

Época: Sep 14, 2026, 18:38 UTC

1 49330U 21094A   26257.77680567 -.00000354  00000-0  00000+0 0  9995
2 49330   5.3208  60.5739 0053533 171.4545 169.2705  1.00266299  6253

Acompanhe SJ-21 em tempo real com AllMySat

Download on the App Store